EA3BIN-13 Weather Reports


Display with metric or nautical units.
time (UTC)temp
F
wind
direction
speed
MPH
gust
MPH
rain 1hr
in
rain 24hr
in
rain mn
in
humidity
%
barometer
mb
20260901000036 74 0.0 0.0 0.00 0.00 0.00 10 1021.2
20260831235036 74 0.0 0.0 0.00 0.00 0.00 10 1021.2
20260831234036 74 0.0 0.0 0.00 0.00 0.00 10 1021.1
20260831233036 74 0.0 0.0 0.00 0.00 0.00 10 1021.0
20260831232036 74 0.0 0.0 0.00 0.00 0.00 10 1020.9
20260831231036 74 0.0 0.0 0.00 0.00 0.00 10 1020.9
20260831230036 74 0.0 0.0 0.00 0.00 0.00 10 1020.8
20260831225036 74 0.0 0.0 0.00 0.00 0.00 10 1020.9
20260831224036 74 0.0 0.0 0.00 0.00 0.00 10 1020.8
20260831223037 74 0.0 0.0 0.00 0.00 0.00 10 1020.7
20260831222037 75 0.0 0.0 0.00 0.00 0.00 10 1020.6
20260831221036 75 0.0 0.0 0.00 0.00 0.00 10 1020.6
20260831220037 74 0.0 0.0 0.00 0.00 0.00 10 1020.7
20260831215036 74 0.0 0.0 0.00 0.00 0.00 10 1020.6
20260831214036 75 0.0 0.0 0.00 0.00 0.00 10 1020.5
20260831213036 75 0.0 0.0 0.00 0.00 0.00 10 1020.4
20260831212036 75 0.0 0.0 0.00 0.00 0.00 10 1020.4
20260831211036 75 0.0 0.0 0.00 0.00 0.00 10 1020.3
20260831210036 75 0.0 0.0 0.00 0.00 0.00 10 1020.2
20260831205036 76 0.0 0.0 0.00 0.00 0.00 96 1020.2
20260831204036 76 0.0 0.0 0.00 0.00 0.00 97 1020.1
20260831203037 76 0.0 0.0 0.00 0.00 0.00 93 1020.0
20260831202037 76 0.0 0.0 0.00 0.00 0.00 89 1019.8
20260831201047 77 0.0 0.0 0.00 0.00 0.00 86 1019.7
20260831200036 78 0.0 0.0 0.00 0.00 0.00 83 1019.4
20260831195036 78 0.0 0.0 0.00 0.00 0.00 83 1019.2
20260831194036 78 0.0 0.0 0.00 0.00 0.00 83 1019.2
20260831193037 78 0.0 0.0 0.00 0.00 0.00 81 1019.0
20260831192036 78 0.0 0.0 0.00 0.00 0.00 81 1018.8
20260831191036 78 0.0 0.0 0.00 0.00 0.00 80 1018.6
20260831190036 78 0.0 0.0 0.00 0.00 0.00 81 1018.4
20260831185037 78 0.0 0.0 0.00 0.00 0.00 81 1018.3
20260831184036 78 0.0 0.0 0.00 0.00 0.00 79 1018.3
20260831183036 78 0.0 0.0 0.00 0.00 0.00 77 1018.2
20260831182036 79 0.0 0.0 0.00 0.00 0.00 76 1018.0
20260831181036 80 0.0 0.0 0.00 0.00 0.00 72 1017.9
20260831180036 81 0.0 0.0 0.00 0.00 0.00 70 1017.7
20260831175037 81 0.0 0.0 0.00 0.00 0.00 69 1017.7
20260831174036 82 0.0 0.0 0.00 0.00 0.00 65 1017.5
20260831173036 83 0.0 0.0 0.00 0.00 0.00 59 1017.4
20260831172036 91 0.0 0.0 0.00 0.00 0.00 43 1016.6
20260831171036 105 0.0 0.0 0.00 0.00 0.00 29 1015.4
20260831170042 103 0.0 0.0 0.00 0.00 0.00 29 1015.6
20260831165036 111 0.0 0.0 0.00 0.00 0.00 25 1015.1
20260831164036 115 0.0 0.0 0.00 0.00 0.00 24 1014.9
20260831163036 103 0.0 0.0 0.00 0.00 0.00 31 1015.6
20260831162036 101 0.0 0.0 0.00 0.00 0.00 32 1016.0
20260831161036 116 0.0 0.0 0.00 0.00 0.00 20 1014.8
20260831160042 124 0.0 0.0 0.00 0.00 0.00 18 1014.2
20260831155036 124 0.0 0.0 0.00 0.00 0.00 18 1014.3
20260831154036 125 0.0 0.0 0.00 0.00 0.00 18 1014.3
20260831153042 121 0.0 0.0 0.00 0.00 0.00 20 1014.7
20260831152036 122 0.0 0.0 0.00 0.00 0.00 20 1014.5
20260831151042 121 0.0 0.0 0.00 0.00 0.00 20 1014.6
20260831150036 124 0.0 0.0 0.00 0.00 0.00 19 1014.3
20260831145037 118 0.0 0.0 0.00 0.00 0.00 22 1014.7
20260831144036 117 0.0 0.0 0.00 0.00 0.00 22 1014.7
20260831143037 107 0.0 0.0 0.00 0.00 0.00 27 1015.7
20260831142036 102 0.0 0.0 0.00 0.00 0.00 36 1016.2
20260831141037 98 0.0 0.0 0.00 0.00 0.00 38 1016.3
20260831140041 92 0.0 0.0 0.00 0.00 0.00 46 1017.0
20260831135036 92 0.0 0.0 0.00 0.00 0.00 44 1017.0
20260831134036 93 0.0 0.0 0.00 0.00 0.00 43 1016.9
20260831133048 93 0.0 0.0 0.00 0.00 0.00 43 1016.8
20260831132037 92 0.0 0.0 0.00 0.00 0.00 44 1016.9
20260831131042 93 0.0 0.0 0.00 0.00 0.00 42 1016.8
20260831130037 93 0.0 0.0 0.00 0.00 0.00 40 1016.8
20260831125042 90 0.0 0.0 0.00 0.00 0.00 45 1017.2
20260831124037 93 0.0 0.0 0.00 0.00 0.00 39 1017.0
20260831123036 92 0.0 0.0 0.00 0.00 0.00 40 1017.1
20260831122047 92 0.0 0.0 0.00 0.00 0.00 42 1017.3
20260831121037 92 0.0 0.0 0.00 0.00 0.00 41 1017.4
20260831120037 91 0.0 0.0 0.00 0.00 0.00 42 1017.5
20260831115036 90 0.0 0.0 0.00 0.00 0.00 43 1017.8
20260831114037 89 0.0 0.0 0.00 0.00 0.00 41 1017.8
20260831113042 88 0.0 0.0 0.00 0.00 0.00 45 1018.1
20260831112037 88 0.0 0.0 0.00 0.00 0.00 43 1018.0
20260831111043 88 0.0 0.0 0.00 0.00 0.00 45 1018.2
20260831110042 87 0.0 0.0 0.00 0.00 0.00 48 1018.3
20260831105036 86 0.0 0.0 0.00 0.00 0.00 47 1018.4
20260831104052 86 0.0 0.0 0.00 0.00 0.00 44 1018.4
20260831103036 85 0.0 0.0 0.00 0.00 0.00 49 1018.5
20260831102108 84 0.0 0.0 0.00 0.00 0.00 50 1018.6
20260831101037 84 0.0 0.0 0.00 0.00 0.00 49 1018.6
20260831100036 84 0.0 0.0 0.00 0.00 0.00 50 1018.7
20260831095037 83 0.0 0.0 0.00 0.00 0.00 52 1018.9
20260831094036 82 0.0 0.0 0.00 0.00 0.00 48 1019.0
20260831093037 82 0.0 0.0 0.00 0.00 0.00 50 1019.0
20260831092037 81 0.0 0.0 0.00 0.00 0.00 55 1019.1
20260831091037 80 0.0 0.0 0.00 0.00 0.00 56 1019.2
20260831090036 79 0.0 0.0 0.00 0.00 0.00 63 1019.3
20260831085042 79 0.0 0.0 0.00 0.00 0.00 63 1019.3
20260831084036 77 0.0 0.0 0.00 0.00 0.00 59 1019.3
20260831083037 77 0.0 0.0 0.00 0.00 0.00 59 1019.3
20260831082036 76 0.0 0.0 0.00 0.00 0.00 56 1019.3
20260831081047 74 0.0 0.0 0.00 0.00 0.00 56 1019.3
20260831080037 73 0.0 0.0 0.00 0.00 0.00 58 1019.4
20260831075036 71 0.0 0.0 0.00 0.00 0.00 61 1019.6
20260831074037 70 0.0 0.0 0.00 0.00 0.00 62 1019.6
20260831073037 69 0.0 0.0 0.00 0.00 0.00 65 1019.7
20260831072036 67 0.0 0.0 0.00 0.00 0.00 67 1019.7
20260831071037 66 0.0 0.0 0.00 0.00 0.00 71 1019.9
20260831070036 66 0.0 0.0 0.00 0.00 0.00 71 1019.7
20260831065036 66 0.0 0.0 0.00 0.00 0.00 73 1019.8
20260831064036 65 0.0 0.0 0.00 0.00 0.00 74 1019.7
20260831063036 65 0.0 0.0 0.00 0.00 0.00 73 1019.5
20260831062036 65 0.0 0.0 0.00 0.00 0.00 74 1019.3
20260831061037 65 0.0 0.0 0.00 0.00 0.00 77 1019.3
20260831060042 64 0.0 0.0 0.00 0.00 0.00 80 1019.3
20260831055036 63 0.0 0.0 0.00 0.00 0.00 84 1019.3
20260831054036 63 0.0 0.0 0.00 0.00 0.00 80 1019.1
20260831053036 62 0.0 0.0 0.00 0.00 0.00 83 1019.1
20260831052037 62 0.0 0.0 0.00 0.00 0.00 80 1019.0
20260831051037 63 0.0 0.0 0.00 0.00 0.00 80 1018.8
20260831050036 63 0.0 0.0 0.00 0.00 0.00 78 1018.8
20260831045036 63 0.0 0.0 0.00 0.00 0.00 78 1018.7
20260831044036 64 0.0 0.0 0.00 0.00 0.00 86 1018.6
20260831043036 64 0.0 0.0 0.00 0.00 0.00 81 1018.7
20260831042037 64 0.0 0.0 0.00 0.00 0.00 78 1018.6
20260831041037 64 0.0 0.0 0.00 0.00 0.00 72 1018.5
20260831040042 64 0.0 0.0 0.00 0.00 0.00 74 1018.4
20260831035037 64 0.0 0.0 0.00 0.00 0.00 75 1018.3
20260831034036 64 0.0 0.0 0.00 0.00 0.00 76 1018.4
20260831033037 65 0.0 0.0 0.00 0.00 0.00 73 1018.3
20260831032042 65 0.0 0.0 0.00 0.00 0.00 76 1018.3
20260831031037 65 0.0 0.0 0.00 0.00 0.00 74 1018.3
20260831030036 65 0.0 0.0 0.00 0.00 0.00 72 1018.3
20260831025036 66 0.0 0.0 0.00 0.00 0.00 76 1018.2
20260831024036 66 0.0 0.0 0.00 0.00 0.00 74 1018.3
20260831023037 66 0.0 0.0 0.00 0.00 0.00 72 1018.2
20260831022036 66 0.0 0.0 0.00 0.00 0.00 79 1018.2
20260831021037 66 0.0 0.0 0.00 0.00 0.00 74 1018.2
20260831020042 66 0.0 0.0 0.00 0.00 0.00 75 1018.1
20260831015037 67 0.0 0.0 0.00 0.00 0.00 75 1018.1
20260831014037 67 0.0 0.0 0.00 0.00 0.00 74 1018.1
20260831013042 66 0.0 0.0 0.00 0.00 0.00 79 1018.0
20260831012036 67 0.0 0.0 0.00 0.00 0.00 83 1018.0
20260831011036 67 0.0 0.0 0.00 0.00 0.00 75 1017.9
20260831010042 68 0.0 0.0 0.00 0.00 0.00 73 1017.8
20260831005052 67 0.0 0.0 0.00 0.00 0.00 79 1017.9
20260831004036 68 0.0 0.0 0.00 0.00 0.00 76 1017.8
20260831003036 69 0.0 0.0 0.00 0.00 0.00 75 1017.7
20260831002037 70 0.0 0.0 0.00 0.00 0.00 71 1017.5
20260831001037 70 0.0 0.0 0.00 0.00 0.00 59 1017.4